Emporia, KS

7:41 PM CST on January 22, 2017 (GMT -0600)
Emporia Municipal

Weather History for KEMP - January, 2014

Change the Weather History Date:

Thursday, January 30, 2014

  Actual Average Record
Temperature  
Mean Temperature 40 °F 32 °F  
Max Temperature 49 °F 42 °F 69 °F (2012)
Min Temperature 30 °F 21 °F 1 °F (2004)
Degree Days  
Heating Degree Days 25 33  
Month to date heating degree days 1096 1017  
Since 1 July heating degree days 3232 2950  
Cooling Degree Days 0 0  
Month to date cooling degree days 0 0  
Year to date cooling degree days 0 0  
Moisture  
Dew Point 15 °F    
Average Humidity 43    
Maximum Humidity 58    
Minimum Humidity 28    
Precipitation  
Precipitation 0.00 in 0.04 in 1.01 in (1999)
Month to date precipitation 0.12 0.59  
Year to date precipitation 0.12 0.59  
Sea Level Pressure  
Sea Level Pressure 29.81 in    
Wind  
Wind Speed 16 mph (SW)    
Max Wind Speed 35 mph    
Max Gust Speed 46 mph    
Visibility 10 miles    
Events      
T = Trace of Precipitation, MM = Missing Value Source: NWS Daily Summary

Daily Weather History Graph

Daily Weather History Graph

Search for Another Location

Airport or City:

Trip Planner

Search our weather history database for the weather conditions in past years. The results will help you decide how hot, cold, wet, or windy it might be!

Date:

Astronomy

Jan. 30, 2014 Rise Set
Actual Time 7:31 AM CST 5:45 PM CST
Civil Twilight 7:03 AM CST 6:13 PM CST
Nautical Twilight 6:31 AM CST 6:44 PM CST
Astronomical Twilight 6:00 AM CST 7:16 PM CST
Moon 6:58 AM CST (1/30) 5:57 PM CST (1/30)
Length of Visible Light 11h 09m
Length of Day
10h 13m
Waning Crescent, 0% of the Moon is Illuminated
Jan 30
Waning Crescent
Jan 30
New
Feb 6
First Quarter
Feb 14
Full
Feb 22
Last Quarter

Hourly Weather History & Observations

Time (CST) Temp. Windchill Dew Point Humidity Pressure Visibility Wind Dir Wind Speed Gust Speed Precip Events Conditions
12:53 AM 30.9 °F 17.8 °F 9.0 °F 40% 29.82 in 10.0 mi South 23.0 mph 34.5 mph N/A   Clear
1:53 AM 32.0 °F 18.9 °F 10.0 °F 40% 29.77 in 10.0 mi South 24.2 mph 31.1 mph N/A   Clear
2:53 AM 32.0 °F 18.6 °F 10.9 °F 42% 29.73 in 10.0 mi South 25.3 mph 31.1 mph N/A   Clear
3:53 AM 30.9 °F 19.1 °F 10.9 °F 43% 29.74 in 10.0 mi South 18.4 mph 29.9 mph N/A   Clear
4:53 AM 30.9 °F 16.9 °F 10.9 °F 43% 29.67 in 10.0 mi South 26.5 mph 39.1 mph N/A   Clear
5:53 AM 30.9 °F 15.9 °F 12.0 °F 46% 29.65 in 10.0 mi South 31.1 mph 42.6 mph N/A   Clear
6:53 AM 30.9 °F 18.1 °F 12.0 °F 46% 29.67 in 10.0 mi South 21.9 mph 38.0 mph N/A   Clear
7:53 AM 30.0 °F 17.5 °F 12.9 °F 49% 29.70 in 10.0 mi South 19.6 mph - N/A   Clear
8:53 AM 33.1 °F 21.9 °F 12.9 °F 43% 29.73 in 10.0 mi SSW 18.4 mph 27.6 mph N/A   Clear
9:53 AM 37.0 °F 26.4 °F 14.0 °F 39% 29.73 in 10.0 mi SSW 20.7 mph 29.9 mph N/A   Clear
10:53 AM 39.0 °F 29.3 °F 14.0 °F 36% 29.76 in 10.0 mi SW 19.6 mph 31.1 mph N/A   Clear
11:53 AM 42.1 °F 34.2 °F 15.1 °F 34% 29.78 in 10.0 mi SW 16.1 mph 24.2 mph N/A   Clear
12:53 PM 44.1 °F 36.8 °F 15.1 °F 31% 29.77 in 10.0 mi WSW 16.1 mph - N/A   Clear
1:53 PM 46.9 °F - 16.0 °F 29% 29.77 in 10.0 mi West 10.4 mph - N/A   Clear
2:53 PM 48.0 °F - 17.1 °F 29% 29.78 in 10.0 mi NW 5.8 mph - N/A   Partly Cloudy
3:53 PM 46.9 °F - 18.0 °F 32% 29.80 in 10.0 mi NNW 10.4 mph - N/A   Partly Cloudy
4:53 PM 46.0 °F - 18.0 °F 33% 29.83 in 10.0 mi Calm Calm - N/A   Clear
5:53 PM 39.9 °F 32.9 °F 21.9 °F 49% 29.88 in 10.0 mi North 11.5 mph - N/A   Clear
6:53 PM 37.0 °F 31.0 °F 21.0 °F 52% 29.92 in 10.0 mi North 8.1 mph - N/A   Clear
7:53 PM 36.0 °F 28.0 °F 19.9 °F 52% 29.94 in 10.0 mi NNE 11.5 mph - N/A   Clear
8:53 PM 34.0 °F 28.0 °F 19.0 °F 54% 29.96 in 10.0 mi NNE 6.9 mph - N/A   Partly Cloudy
9:53 PM 32.0 °F 23.6 °F 18.0 °F 56% 29.97 in 10.0 mi NNE 10.4 mph - N/A   Overcast
10:53 PM 30.9 °F 20.7 °F 17.1 °F 57% 29.99 in 10.0 mi NNE 13.8 mph - N/A   Mostly Cloudy
11:53 PM 30.0 °F 19.5 °F 17.1 °F 59% 29.99 in 10.0 mi NNE 13.8 mph - N/A   Scattered Clouds